This is the latest recevied weather packets stored in our database for station/object KY0TEQ-13. If no packets are shown the sender has not sent any weather packets the latest 10 day(s).
| Time | Temp. | Humidity | Pressure | Rain* | Wind** | Luminosity | Snow |
|---|---|---|---|---|---|---|---|
| 1777921863 | 15° C | 34% | 1299.8 hPa | 0 mm | - | 369 W/m² | - |
| 1777921560 | 15° C | 33% | 1299.9 hPa | 0 mm | - | 409 W/m² | - |
| 1777921256 | 15° C | 33% | 1300 hPa | 0 mm | - | 453 W/m² | - |
| 1777920953 | 14.44° C | 35% | 1299.9 hPa | 0 mm | - | 427 W/m² | - |
| 1777920650 | 15° C | 35% | 1300 hPa | 0 mm | - | 465 W/m² | - |
| 1777920345 | 15° C | 37% | 1300 hPa | 0 mm | - | 515 W/m² | - |
| 1777920040 | 15° C | 35% | 1300.1 hPa | 0 mm | - | 406 W/m² | - |
| 1777919738 | 15° C | 35% | 1300.1 hPa | 0 mm | - | 423 W/m² | - |
| 1777919436 | 15° C | 36% | 1300.1 hPa | 0 mm | - | 428 W/m² | - |
| 1777919132 | 15° C | 37% | 1300.2 hPa | 0 mm | - | 400 W/m² | - |
| 1777918830 | 13.89° C | 41% | 1300.5 hPa | 0 mm | - | 393 W/m² | - |
| 1777918527 | 14.44° C | 39% | 1300.4 hPa | 0 mm | - | 400 W/m² | - |
| 1777918225 | 14.44° C | 41% | 1300.5 hPa | 0 mm | - | 405 W/m² | - |
| 1777917924 | 14.44° C | 40% | 1300.5 hPa | 0 mm | - | 412 W/m² | - |
| 1777917622 | 13.89° C | 40% | 1300.6 hPa | 0 mm | - | 420 W/m² | - |
| 1777917319 | 14.44° C | 41% | 1300.6 hPa | 0 mm | - | 429 W/m² | - |
| 1777917016 | 13.89° C | 41% | 1300.5 hPa | 0 mm | - | 398 W/m² | - |
| 1777916714 | 13.89° C | 41% | 1300.7 hPa | 0 mm | - | 412 W/m² | - |
| 1777916411 | 13.89° C | 42% | 1300.7 hPa | 0 mm | - | 421 W/m² | - |
| 1777916107 | 13.33° C | 42% | 1300.6 hPa | 0 mm | - | 374 W/m² | - |
| 1777915805 | 13.33° C | 43% | 1300.9 hPa | 0 mm | - | 373 W/m² | - |
| 1777915500 | 13.33° C | 42% | 1300.9 hPa | 0 mm | - | 366 W/m² | - |
| 1777915197 | 13.33° C | 44% | 1300.9 hPa | 0 mm | - | 411 W/m² | - |
| 1777914894 | 13.89° C | 43% | 1300.6 hPa | 0 mm | - | 397 W/m² | - |
| 1777914591 | 13.33° C | 42% | 1300.7 hPa | 0 mm | - | 366 W/m² | - |
* Rain latest hour (hover to see other rain measurements)
** Current wind speed in m/s (hover to see current wind gust speed)